Weather History for KLXN - April, 2013

Change the Weather History Date:

Tuesday, April 2, 2013

  Actual Average Record
Temperature  
Mean Temperature 40 °F -  
Max Temperature 57 °F 53 °F 82 °F (2003)
Min Temperature 23 °F 30 °F 21 °F (2009)
Degree Days  
Heating Degree Days 25    
Moisture  
Dew Point 24 °F    
Average Humidity 53    
Maximum Humidity 89    
Minimum Humidity 28    
Precipitation  
Precipitation 0.00 in - - ()
Sea Level Pressure  
Sea Level Pressure 30.20 in    
Wind  
Wind Speed 6 mph (SSW)    
Max Wind Speed 14 mph    
Max Gust Speed 21 mph    
Visibility 10 miles    
Events      
Averages and records for this station are not official NWS values.
T = Trace of Precipitation, MM = Missing Value Source: NWS Daily Summary

Daily Weather History Graph

Daily Weather History Graph

Search for Another Location

Airport or City:

Trip Planner

Search our weather history database for the weather conditions in past years. The results will help you decide how hot, cold, wet, or windy it might be!

Date:

Astronomy

Apr. 02, 2013 Rise Set
Actual Time 7:20 AM CDT 8:05 PM CDT
Civil Twilight 6:52 AM CDT 8:33 PM CDT
Nautical Twilight 6:20 AM CDT 9:05 PM CDT
Astronomical Twilight 5:46 AM CDT 9:39 PM CDT
Moon 2:13 AM CDT (4/2) 12:11 PM CDT (4/2)
Length of Visible Light 13h 40m
Length of Day
12h 44m
Waning Gibbous, 55% of the Moon is Illuminated
Apr 2
Waning Gibbous
Apr 2
Last Quarter
Apr 10
New
Apr 18
First Quarter
Apr 25
Full

Hourly Weather History & Observations

Time (CDT) Temp. Windchill Dew Point Humidity Pressure Visibility Wind Dir Wind Speed Gust Speed Precip Events Conditions
12:15 AM 34.7 °F 28.8 °F 24.8 °F 67% 30.22 in 10.0 mi SSE 6.9 mph - N/A   Clear
12:35 AM 33.4 °F 28.1 °F 24.8 °F 71% 30.22 in 10.0 mi SSE 5.8 mph - N/A   Clear
12:55 AM 32.9 °F 26.7 °F 24.6 °F 72% 30.22 in 10.0 mi SSE 6.9 mph - N/A   Clear
1:15 AM 32.9 °F 27.5 °F 24.4 °F 71% 30.21 in 10.0 mi SE 5.8 mph - N/A   Clear
1:35 AM 32.7 °F 27.3 °F 24.4 °F 72% 30.22 in 10.0 mi SE 5.8 mph - N/A   Clear
1:55 AM 32.0 °F 26.4 °F 24.3 °F 73% 30.22 in 10.0 mi SSE 5.8 mph - N/A   Clear
2:15 AM 31.5 °F 25.8 °F 24.4 °F 75% 30.22 in 10.0 mi South 5.8 mph - N/A   Clear
2:35 AM 32.0 °F 27.5 °F 24.6 °F 74% 30.22 in 10.0 mi South 4.6 mph - N/A   Clear
2:55 AM 32.0 °F 27.5 °F 24.8 °F 75% 30.22 in 10.0 mi SSE 4.6 mph - N/A   Clear
3:15 AM 32.4 °F 27.9 °F 24.4 °F 73% 30.22 in 10.0 mi SSE 4.6 mph - N/A   Clear
3:35 AM 32.2 °F 27.7 °F 24.6 °F 74% 30.21 in 10.0 mi South 4.6 mph - N/A   Clear
3:55 AM 31.8 °F 28.5 °F 24.3 °F 74% 30.21 in 10.0 mi SSE 3.5 mph - N/A   Clear
4:15 AM 32.0 °F 27.5 °F 24.3 °F 73% 30.21 in 10.0 mi SSE 4.6 mph - N/A   Clear
4:35 AM 31.1 °F 26.4 °F 23.9 °F 75% 30.21 in 10.0 mi SSE 4.6 mph - N/A   Clear
4:55 AM 30.4 °F 24.5 °F 23.7 °F 76% 30.21 in 10.0 mi SSE 5.8 mph - N/A   Clear
5:15 AM 30.4 °F 24.5 °F 23.7 °F 76% 30.21 in 10.0 mi SSE 5.8 mph - N/A   Clear
5:35 AM 29.8 °F 26.3 °F 23.4 °F 77% 30.22 in 10.0 mi SSE 3.5 mph - N/A   Clear
5:55 AM 28.2 °F - 22.6 °F 80% 30.22 in 10.0 mi Calm Calm - N/A   Clear
6:15 AM 28.6 °F - 22.8 °F 79% 30.22 in 10.0 mi Calm Calm - N/A   Clear
6:35 AM 24.6 °F 20.3 °F 20.7 °F 85% 30.22 in 10.0 mi SE 3.5 mph - N/A   Clear
6:55 AM 23.9 °F - 20.8 °F 88% 30.22 in 10.0 mi Calm Calm - N/A   Clear
7:15 AM 24.1 °F - 21.0 °F 88% 30.22 in 10.0 mi Calm Calm - N/A   Clear
7:35 AM 23.9 °F - 21.2 °F 89% 30.22 in 10.0 mi Calm Calm - N/A   Clear
7:55 AM 25.5 °F - 22.8 °F 89% 30.22 in 7.0 mi Calm Calm - N/A   Clear
8:15 AM 29.3 °F - 25.9 °F 87% 30.22 in 10.0 mi Calm Calm - N/A   Clear
8:35 AM 33.1 °F 30.0 °F 25.7 °F 74% 30.23 in 10.0 mi SSE 3.5 mph - N/A   Clear
8:55 AM 34.7 °F - 26.2 °F 71% 30.23 in 10.0 mi Calm Calm - N/A   Clear
9:35 AM 38.5 °F 36.1 °F 26.8 °F 63% 30.24 in 10.0 mi SSW 3.5 mph - N/A   Clear
9:55 AM 39.6 °F 37.4 °F 27.7 °F 62% 30.24 in 10.0 mi South 3.5 mph - N/A   Clear
10:15 AM 41.9 °F - 28.2 °F 58% 30.24 in 10.0 mi Calm Calm - N/A   Clear
10:35 AM 45.1 °F 40.8 °F 27.7 °F 50% 30.23 in 10.0 mi WSW 8.1 mph - N/A   Clear
10:55 AM 46.0 °F 42.5 °F 26.8 °F 47% 30.23 in 10.0 mi SW 6.9 mph - N/A   Clear
11:15 AM 47.5 °F - 25.7 °F 43% 30.22 in 10.0 mi South 8.1 mph 16.1 mph N/A   Clear
11:35 AM 48.7 °F - 25.0 °F 40% 30.23 in 10.0 mi SSW 9.2 mph 16.1 mph N/A   Clear
11:55 AM 49.5 °F - 25.2 °F 39% 30.22 in 10.0 mi SSW 12.7 mph 18.4 mph N/A   Scattered Clouds
12:15 PM 50.4 °F - 24.1 °F 36% 30.22 in 10.0 mi SSW 13.8 mph 20.7 mph N/A   Scattered Clouds
12:35 PM 50.7 °F - 24.1 °F 35% 30.22 in 10.0 mi SSW 11.5 mph 19.6 mph N/A   Clear
12:55 PM 51.3 °F - 24.6 °F 35% 30.21 in 10.0 mi SSW 9.2 mph 16.1 mph N/A   Clear
1:15 PM 51.8 °F - 23.7 °F 33% 30.21 in 10.0 mi SW 6.9 mph 18.4 mph N/A   Clear
1:35 PM 52.2 °F - 24.3 °F 34% 30.20 in 10.0 mi SW 12.7 mph 17.3 mph N/A   Clear
1:55 PM 52.2 °F - 24.3 °F 34% 30.20 in 10.0 mi SW 11.5 mph 17.3 mph N/A   Clear
2:15 PM 53.6 °F - 25.0 °F 33% 30.19 in 10.0 mi SSW 11.5 mph 17.3 mph N/A   Clear
2:35 PM 53.4 °F - 24.6 °F 33% 30.19 in 10.0 mi SSW 12.7 mph 20.7 mph N/A   Clear
2:55 PM 54.7 °F - 24.6 °F 31% 30.18 in 10.0 mi SW 8.1 mph - N/A   Clear
3:15 PM 55.0 °F - 24.4 °F 31% 30.18 in 10.0 mi South 10.4 mph - N/A   Clear
3:35 PM 55.6 °F - 24.6 °F 30% 30.17 in 10.0 mi South 6.9 mph 18.4 mph N/A   Clear
3:55 PM 56.1 °F - 24.3 °F 29% 30.17 in 10.0 mi SW 5.8 mph 17.3 mph N/A   Clear
4:15 PM 56.3 °F - 24.6 °F 29% 30.16 in 10.0 mi SSW 9.2 mph 18.4 mph N/A   Clear
4:35 PM 56.3 °F - 24.3 °F 29% 30.15 in 10.0 mi SSW 13.8 mph 18.4 mph N/A   Clear
4:55 PM 56.7 °F - 23.9 °F 28% 30.15 in 10.0 mi SSW 10.4 mph 20.7 mph N/A   Clear
5:15 PM 57.0 °F - 23.9 °F 28% 30.15 in 10.0 mi SSW 11.5 mph - N/A   Clear
5:35 PM 56.8 °F - 23.9 °F 28% 30.15 in 10.0 mi SW 10.4 mph - N/A   Clear
5:55 PM 56.5 °F - 23.2 °F 28% 30.15 in 10.0 mi South 6.9 mph - N/A   Clear
6:15 PM 56.3 °F - 23.0 °F 28% 30.15 in 10.0 mi SSW 10.4 mph - N/A   Clear
6:35 PM 55.8 °F - 22.8 °F 28% 30.15 in 10.0 mi SSW 9.2 mph - N/A   Clear
6:55 PM 55.0 °F - 22.1 °F 28% 30.15 in 10.0 mi SW 6.9 mph - N/A   Clear
7:15 PM 54.1 °F - 22.1 °F 29% 30.15 in 10.0 mi SSW 5.8 mph - N/A   Clear
7:35 PM 52.7 °F - 22.1 °F 30% 30.15 in 10.0 mi South 8.1 mph - N/A   Clear
7:55 PM 50.2 °F - 23.0 °F 35% 30.15 in 10.0 mi South 8.1 mph - N/A   Clear
8:15 PM 48.4 °F - 23.9 °F 38% 30.14 in 10.0 mi South 10.4 mph - N/A   Clear
8:35 PM 46.6 °F - 23.9 °F 41% 30.14 in 10.0 mi South 10.4 mph - N/A   Clear
8:55 PM 45.5 °F 40.3 °F 24.3 °F 43% 30.15 in 10.0 mi South 10.4 mph - N/A   Clear
9:15 PM 45.0 °F 39.7 °F 23.9 °F 44% 30.16 in 10.0 mi South 10.4 mph - N/A   Clear
9:35 PM 45.1 °F 39.1 °F 23.9 °F 43% 30.17 in 10.0 mi SSW 12.7 mph - N/A   Clear
9:55 PM 43.9 °F 37.9 °F 24.8 °F 47% 30.18 in 10.0 mi SSW 11.5 mph - N/A   Clear
10:15 PM 43.3 °F 36.8 °F 24.6 °F 48% 30.19 in 10.0 mi SSW 12.7 mph - N/A   Clear
10:35 PM 42.3 °F 36.3 °F 24.8 °F 50% 30.19 in 10.0 mi SW 10.4 mph - N/A   Clear
10:55 PM 41.9 °F 35.0 °F 24.8 °F 51% 30.20 in 10.0 mi SW 12.7 mph - N/A   Clear
11:15 PM 40.8 °F 35.6 °F 24.8 °F 53% 30.20 in 10.0 mi SW 8.1 mph - N/A   Clear
11:35 PM 40.3 °F 35.5 °F 24.8 °F 54% 30.20 in 10.0 mi WSW 6.9 mph - N/A   Clear
11:55 PM 37.8 °F 32.5 °F 24.6 °F 59% 30.20 in 10.0 mi WSW 6.9 mph - N/A   Clear